EW5207 Weather Reports


time (UTC)temp
C
wind
direction
speed
KPH
gust
KPH
rain 1hr
cm
rain 24hr
cm
rain mn
cm
humidity
%
barometer
mb
20260506212135 18 228 0.0 0.0 0.00 0.43 0.43 86 1006.4
20260506212019 18 270 0.0 3.2 0.00 0.56 0.56 92 1004.8
20260506211634 18 164 0.0 0.0 0.00 0.43 0.43 86 1006.4
20260506211515 17 180 3.2 3.2 0.00 0.56 0.56 92 1004.8
20260506211414 18 164 0.0 0.0 0.00 0.43 0.43 86 1006.3
20260506211013 17 169 3.2 4.8 0.00 0.56 0.56 92 1004.9
20260506210635 18 178 0.0 0.0 0.00 0.43 0.43 85 1006.4
20260506210509 18 203 0.0 3.2 0.00 0.56 0.56 92 1004.8
20260506210135 18 178 0.0 0.0 0.00 0.43 0.43 85 1006.4
20260506210006 18 228 3.2 4.8 0.00 0.56 0.56 91 1004.7
20260506205632 18 171 0.0 0.0 0.00 0.43 0.43 85 1006.3
20260506205502 18 180 0.0 4.8 0.00 0.56 0.56 91 1004.8
20260506205131 18 169 0.0 0.0 0.00 0.43 0.43 85 1006.3
20260506204957 18 173 1.6 4.8 0.00 0.56 0.56 90 1004.7
20260506204630 18 190 0.0 0.0 0.00 0.43 0.43 84 1006.3
20260506204456 18 221 3.2 6.4 0.00 0.56 0.56 90 1004.8
20260506204419 18 194 0.0 0.0 0.00 0.43 0.43 84 1006.2
20260506203953 18 203 3.2 6.4 0.00 0.56 0.56 89 1004.7
20260506203630 18 184 0.0 0.0 0.00 0.43 0.43 84 1006.3
20260506203450 18 201 4.8 6.4 0.00 0.56 0.56 90 1004.9
20260506203130 18 184 0.0 0.0 0.00 0.43 0.43 84 1006.3
20260506202947 18 212 4.8 9.7 0.00 0.56 0.56 90 1004.9
20260506202631 18 180 0.0 0.0 0.00 0.43 0.43 85 1006.3
20260506202444 18 177 3.2 6.4 0.00 0.56 0.56 90 1004.7
20260506202125 18 188 0.0 0.0 0.00 0.43 0.43 86 1006.1
20260506201940 18 212 4.8 6.4 0.00 0.56 0.56 91 1004.5
20260506201623 17 173 0.0 0.0 0.00 0.43 0.43 87 1006.1
20260506201438 17 251 0.0 3.2 0.00 0.56 0.56 93 1004.6
20260506201403 17 177 0.0 0.0 0.00 0.43 0.43 87 1006.1
20260506200934 17 198 1.6 3.2 0.00 0.56 0.56 93 1004.5
20260506200620 17 180 0.0 0.0 0.00 0.43 0.43 87 1006.1
20260506200431 17 180 0.0 3.2 0.00 0.56 0.56 94 1004.8
20260506200119 17 159 0.0 0.0 0.00 0.43 0.43 87 1006.2
20260506195927 17 203 3.2 4.8 0.00 0.56 0.56 93 1004.7
20260506195858 17 169 0.0 0.0 0.00 0.43 0.43 88 1006.2
20260506195424 17 208 3.2 6.4 0.00 0.56 0.56 93 1004.6
20260506195115 17 221 0.0 0.0 0.00 0.43 0.43 87 1006.3
20260506194921 17 180 3.2 6.4 0.00 0.56 0.56 94 1004.8
20260506194614 17 199 0.0 0.0 0.00 0.43 0.43 88 1006.4
20260506194418 17 180 1.6 4.8 0.00 0.56 0.56 94 1004.8
20260506194115 17 194 0.0 0.0 0.00 0.43 0.43 88 1006.5
20260506193915 17 323 3.2 4.8 0.00 0.56 0.56 94 1005.1
20260506193602 17 202 0.0 0.0 0.00 0.43 0.43 88 1006.6
20260506193412 17 307 4.8 4.8 0.00 0.56 0.56 94 1005.1
20260506193102 17 192 0.0 0.0 0.00 0.43 0.43 88 1006.6
20260506192908 17 220 4.8 6.4 0.00 0.56 0.56 94 1004.9
20260506192602 17 178 0.0 0.0 0.00 0.43 0.43 89 1006.5
20260506192406 17 191 3.2 4.8 0.00 0.56 0.56 94 1004.9
20260506192101 17 189 0.0 0.0 0.00 0.43 0.43 89 1006.5
20260506191939 16 202 0.0 0.0 0.00 0.43 0.43 91 1006.5
20260506191902 16 180 4.8 9.7 0.00 0.56 0.56 95 1004.8
20260506191629 16 157 0.0 0.0 0.00 0.43 0.43 90 1006.5
20260506191359 17 180 0.0 8.0 0.00 0.56 0.56 95 1005.0
20260506190856 16 254 1.6 4.8 0.00 0.56 0.56 96 1005.1
20260506190604 16 164 0.0 0.0 0.00 0.43 0.43 90 1006.7
20260506190352 16 166 4.8 8.0 0.00 0.56 0.56 96 1005.2
20260506190108 16 169 0.0 0.0 0.00 0.43 0.43 91 1006.7
20260506185849 16 182 0.0 0.0 0.00 0.43 0.43 91 1006.7
20260506185346 16 162 3.2 4.8 0.00 0.56 0.56 96 1005.3
20260506185054 16 186 0.0 0.0 0.00 0.43 0.43 91 1006.7
20260506184848 16 209 0.0 0.0 0.00 0.43 0.43 91 1006.8
20260506184843 16 236 6.4 9.7 0.00 0.56 0.56 96 1005.2
20260506184340 16 211 4.8 6.4 0.00 0.56 0.56 97 1005.3
20260506184053 16 180 0.0 0.0 0.00 0.43 0.43 91 1006.8
20260506183838 15 180 1.6 3.2 0.00 0.56 0.56 97 1005.3
20260506183554 15 201 0.0 0.0 0.00 0.43 0.43 91 1006.9
20260506183333 15 196 3.2 4.8 0.00 0.56 0.56 97 1005.5
20260506183053 15 170 0.0 0.0 0.00 0.43 0.43 92 1007.0
20260506182830 15 180 3.2 6.4 0.00 0.56 0.56 97 1005.5
20260506182543 15 173 0.0 0.0 0.00 0.43 0.43 92 1007.0
20260506182327 15 175 1.6 6.4 0.00 0.56 0.56 97 1005.6
20260506182043 15 159 0.0 0.0 0.00 0.43 0.43 92 1007.2
20260506181831 15 186 0.0 0.0 0.00 0.43 0.43 91 1007.3
20260506181825 15 168 1.6 6.4 0.00 0.56 0.56 97 1005.9
20260506181325 15 194 0.0 0.0 0.00 0.43 0.43 91 1007.3
20260506181323 15 185 1.6 6.4 0.00 0.56 0.56 97 1005.7
20260506180819 15 233 4.8 8.0 0.00 0.56 0.56 97 1006.0
20260506180553 15 192 0.0 0.0 0.00 0.43 0.43 91 1007.4
20260506180315 15 184 3.2 9.7 0.00 0.56 0.56 98 1006.0
20260506180038 15 175 0.0 0.0 0.00 0.43 0.43 92 1007.4
20260506175825 15 185 0.0 0.0 0.00 0.43 0.43 92 1007.3
20260506175812 15 245 3.2 8.0 0.00 0.56 0.56 98 1006.0
20260506175309 15 216 3.2 6.4 0.00 0.56 0.56 98 1005.9
20260506175038 15 204 0.0 0.0 0.00 0.43 0.43 92 1007.3
20260506174806 15 225 4.8 9.7 0.00 0.56 0.56 99 1005.7
20260506174537 15 171 0.0 0.0 0.00 0.43 0.43 92 1007.3
20260506174303 15 180 1.6 4.8 0.00 0.56 0.56 99 1005.6
20260506174026 15 181 0.0 0.0 0.00 0.43 0.43 92 1007.3
20260506173801 15 183 4.8 6.4 0.00 0.56 0.56 99 1005.5
20260506173513 15 179 0.0 0.0 0.00 0.43 0.43 92 1007.3
20260506173257 15 180 1.6 6.4 0.00 0.56 0.56 99 1005.9
20260506173004 15 192 0.0 0.0 0.00 0.43 0.43 92 1007.3
20260506172754 15 192 3.2 9.7 0.00 0.56 0.56 99 1005.6
20260506172453 15 234 0.0 0.0 0.00 0.43 0.43 92 1007.3
20260506172251 15 103 3.2 6.4 0.00 0.56 0.56 99 1006.0
20260506171941 15 172 0.0 0.0 0.03 0.43 0.43 92 1007.4
20260506171749 15 189 6.4 8.0 0.00 0.56 0.56 99 1005.9
20260506171441 15 178 0.0 0.0 0.03 0.43 0.43 92 1007.3
20260506171245 15 220 3.2 8.0 0.00 0.56 0.56 99 1005.7
20260506170941 15 194 0.0 0.0 0.03 0.43 0.43 92 1007.3
20260506170743 15 161 4.8 8.0 0.00 0.56 0.56 99 1005.7
20260506170452 15 201 0.0 0.0 0.03 0.43 0.43 92 1007.2
20260506170239 15 146 3.2 8.0 0.00 0.56 0.56 99 1005.8
20260506170222 15 134 0.0 0.0 0.03 0.43 0.43 92 1007.3
20260506165738 15 192 3.2 6.4 0.00 0.56 0.56 99 1005.9
20260506165435 15 174 0.0 0.0 0.05 0.43 0.43 92 1007.4
20260506165235 15 194 6.4 8.0 0.00 0.56 0.56 99 1006.0
20260506164935 15 185 0.0 0.0 0.05 0.43 0.43 92 1007.5
20260506164732 15 160 8.0 8.0 0.00 0.56 0.56 99 1006.1
20260506164434 15 171 0.0 0.0 0.08 0.43 0.43 93 1007.4
20260506164229 15 168 4.8 9.7 0.00 0.56 0.56 99 1006.1
20260506163931 15 165 0.0 0.0 0.10 0.43 0.43 93 1007.5
20260506163726 15 154 6.4 8.0 0.00 0.56 0.56 99 1006.0
20260506163427 15 146 0.0 0.0 0.13 0.43 0.43 93 1007.4
20260506163220 15 194 8.0 8.0 0.00 0.56 0.56 99 1006.0
20260506162928 15 165 0.0 0.0 0.15 0.43 0.43 93 1007.5
20260506162717 15 196 4.8 12.9 0.00 0.56 0.56 99 1006.2
20260506162712 15 163 0.0 0.0 0.18 0.43 0.43 93 1007.6
20260506162215 15 203 0.0 4.8 0.00 0.56 0.56 99 1006.2
20260506162208 15 178 0.0 0.0 0.15 0.41 0.41 93 1007.5
20260506161712 15 168 6.4 9.7 0.13 0.56 0.56 99 1006.0
20260506161425 15 152 0.0 0.0 0.18 0.41 0.41 93 1007.5
20260506161209 15 180 3.2 9.7 0.13 0.56 0.56 99 1006.2
20260506160926 15 155 0.0 0.0 0.18 0.41 0.41 93 1007.6
20260506160706 15 157 0.0 0.0 0.20 0.41 0.41 93 1007.3
20260506160203 15 132 3.2 9.7 0.18 0.53 0.53 99 1006.0
20260506160152 15 166 0.0 0.0 0.20 0.41 0.41 93 1007.4
20260506155701 15 176 6.4 11.3 0.18 0.53 0.53 99 1005.9
20260506155400 15 123 0.0 0.0 0.18 0.38 0.38 93 1007.7
20260506155158 15 166 6.4 11.3 0.30 0.51 0.51 99 1006.7
20260506154854 15 135 0.0 0.0 0.20 0.38 0.38 93 1008.0
20260506154346 15 137 0.0 0.0 0.20 0.36 0.36 93 1008.3
20260506154125 15 143 0.0 0.0 0.20 0.33 0.33 93 1008.4
20260506153342 15 123 0.0 0.0 0.18 0.30 0.30 92 1008.4
20260506153300 15 180 0.0 6.4 0.30 0.41 0.41 99 1007.2
20260506152841 15 145 0.0 0.0 0.15 0.28 0.28 92 1008.5
20260506152757 15 129 4.8 6.4 0.13 0.36 0.36 99 1007.1
20260506152337 15 150 0.0 0.0 0.15 0.25 0.25 92 1008.6
20260506152254 15 141 4.8 6.4 0.30 0.36 0.36 99 1007.1
20260506151836 15 145 0.0 0.0 0.13 0.23 0.25 92 1008.6
20260506151753 15 163 3.2 8.0 0.18 0.33 0.33 99 1007.4
20260506151333 15 167 0.0 0.0 0.13 0.23 0.23 92 1008.7
20260506151249 15 174 1.6 4.8 0.18 0.30 0.30 99 1007.2
20260506150831 15 181 0.0 0.0 0.15 0.23 0.23 92 1008.6
20260506150746 15 60 0.0 1.6 0.18 0.30 0.30 99 1007.2
20260506150330 15 183 0.0 0.0 0.13 0.20 0.20 91 1008.5
20260506150243 15 154 4.8 4.8 0.13 0.28 0.28 99 1007.3
20260506145821 15 187 0.0 0.0 0.15 0.20 0.20 91 1008.5
20260506145740 15 180 1.6 4.8 0.30 0.28 0.28 99 1007.0
20260506145312 15 159 0.0 0.0 0.18 0.20 0.20 91 1008.3
20260506145236 15 152 3.2 6.4 0.30 0.25 0.25 99 1006.9
20260506144810 15 151 0.0 0.0 0.18 0.18 0.18 91 1008.3
20260506144734 15 173 3.2 8.0 0.13 0.23 0.23 99 1006.9
20260506144307 15 151 0.0 0.0 0.15 0.15 0.15 91 1008.3
20260506144231 15 161 4.8 6.4 0.18 0.20 0.20 98 1007.0
20260506143806 15 148 0.0 0.0 0.13 0.13 0.13 91 1008.4
20260506143728 15 166 3.2 6.4 0.13 0.18 0.18 98 1007.1
20260506143548 15 156 0.0 0.0 0.13 0.13 0.13 91 1008.5
20260506143225 15 192 0.0 4.8 0.13 0.18 0.18 98 1007.2
20260506142803 15 154 0.0 0.0 0.13 0.13 0.13 90 1008.4
20260506142724 15 166 0.0 4.8 0.00 0.15 0.15 98 1007.2
20260506142305 15 153 0.0 0.0 0.10 0.10 0.10 90 1008.5
20260506142222 15 180 1.6 4.8 0.18 0.15 0.15 98 1007.3
20260506141802 15 184 0.0 0.0 0.10 0.10 0.10 90 1008.5
20260506141719 15 169 3.2 4.8 0.13 0.13 0.13 97 1007.2
20260506141534 15 170 0.0 0.0 0.08 0.08 0.10 89 1008.4
20260506141217 15 131 4.8 6.4 0.13 0.13 0.13 97 1007.0
20260506140734 15 166 0.0 0.0 0.08 0.08 0.08 89 1008.4
20260506140715 15 166 0.0 4.8 0.18 0.10 0.10 96 1007.1
20260506140501 15 166 0.0 0.0 0.05 0.05 0.05 88 1008.4
20260506140212 15 180 0.0 6.4 0.30 0.10 0.10 95 1007.0
20260506135723 16 155 0.0 0.0 0.05 0.05 0.05 87 1008.3
20260506135708 15 96 1.6 6.4 0.30 0.08 0.08 94 1006.8
20260506135222 16 155 0.0 0.0 0.03 0.03 0.03 86 1008.5
20260506135205 16 154 1.6 6.4 0.18 0.05 0.05 93 1007.3
20260506134803 16 164 0.0 0.0 0.00 0.00 0.00 85 1008.3
20260506134750 16 140 0.0 0.0 0.00 0.00 0.00 86 1008.4
20260506134701 16 120 4.8 4.8 0.13 0.03 0.03 92 1007.0
20260506134157 16 180 3.2 6.4 0.13 0.03 0.03 91 1007.0
20260506134011 16 159 0.0 0.0 0.00 0.00 0.00 84 1008.3
20260506133655 16 184 3.2 6.4 0.00 0.00 0.00 90 1007.0
20260506133220 16 157 0.0 0.0 0.00 0.00 0.00 84 1008.4
20260506133151 16 184 6.4 6.4 0.00 0.00 0.00 89 1007.2
20260506133003 16 163 0.0 0.0 0.00 0.00 0.00 83 1008.3
20260506132649 16 154 6.4 6.4 0.00 0.00 0.00 88 1006.8
20260506132209 16 150 0.0 0.0 0.00 0.00 0.00 83 1008.3
20260506132145 16 141 4.8 8.0 0.00 0.00 0.00 89 1006.9
20260506131710 16 169 0.0 0.0 0.00 0.00 0.00 84 1008.3
20260506131643 16 146 3.2 4.8 0.00 0.00 0.00 89 1007.1
20260506131210 16 167 0.0 0.0 0.00 0.00 0.00 83 1008.4
20260506131139 16 239 3.2 4.8 0.00 0.00 0.00 88 1007.0
20260506130719 16 184 0.0 0.0 0.00 0.00 0.00 83 1008.4
20260506130636 16 191 3.2 3.2 0.00 0.00 0.00 89 1006.9
20260506130210 16 176 0.0 0.0 0.00 0.00 0.00 83 1008.4
20260506130134 16 164 3.2 3.2 0.00 0.00 0.00 89 1007.3
20260506125657 16 183 0.0 0.0 0.00 0.00 0.00 83 1008.5
20260506125632 16 220 3.2 9.7 0.00 0.00 0.00 89 1007.1
20260506125437 16 165 0.0 0.0 0.00 0.00 0.00 82 1008.6
20260506125129 16 212 0.0 8.0 0.00 0.00 0.00 89 1007.4
20260506124655 17 178 0.0 0.0 0.00 0.00 0.00 82 1008.5
20260506124627 16 209 3.2 4.8 0.00 0.00 0.00 88 1007.5
20260506124156 17 181 0.0 0.0 0.00 0.00 0.00 80 1008.5
20260506124125 17 190 3.2 6.4 0.00 0.00 0.00 86 1007.2
20260506123942 17 198 0.0 0.0 0.00 0.00 0.00 78 1008.6
20260506123622 17 219 4.8 9.7 0.00 0.00 0.00 84 1007.4
20260506123153 17 197 0.0 0.0 0.00 0.00 0.00 78 1008.7
20260506123121 17 198 8.0 11.3 0.00 0.00 0.00 83 1007.3
20260506122651 17 171 0.0 0.0 0.00 0.00 0.00 78 1008.6
20260506122617 17 232 4.8 8.0 0.00 0.00 0.00 84 1007.0
20260506122152 17 175 0.0 0.0 0.00 0.00 0.00 78 1008.4
20260506122115 17 245 6.4 14.5 0.00 0.00 0.00 83 1007.1
20260506121652 17 172 0.0 0.0 0.00 0.00 0.00 79 1008.3
20260506121612 17 176 4.8 8.0 0.00 0.00 0.00 84 1007.0
20260506121152 17 186 0.0 0.0 0.00 0.00 0.00 79 1008.3
20260506121108 17 193 4.8 6.4 0.00 0.00 0.00 84 1006.9
20260506120633 17 196 0.0 0.0 0.00 0.00 0.00 79 1008.4
20260506120606 17 189 4.8 11.3 0.00 0.00 0.00 84 1007.0
20260506120421 17 169 0.0 0.0 0.00 0.00 0.00 79 1008.2
20260506120103 17 172 4.8 8.0 0.00 0.00 0.00 84 1006.8
20260506115633 17 205 0.0 0.0 0.00 0.00 0.00 79 1008.1
20260506115602 17 137 8.0 8.0 0.00 0.00 0.00 84 1007.0
20260506115133 17 156 0.0 0.0 0.00 0.00 0.00 79 1008.2
20260506115059 17 168 8.0 11.3 0.00 0.00 0.00 84 1006.9
20260506114633 17 137 0.0 0.0 0.00 0.00 0.00 79 1008.0
20260506114556 17 197 3.2 11.3 0.00 0.00 0.00 84 1007.0
20260506114421 17 200 0.0 0.0 0.00 0.00 0.00 79 1008.0
20260506114055 17 223 6.4 14.5 0.00 0.00 0.00 84 1006.5
20260506113620 17 163 0.0 0.0 0.00 0.00 0.00 79 1008.0
20260506113552 17 210 6.4 8.0 0.00 0.00 0.00 85 1006.8
20260506113105 17 198 0.0 0.0 0.00 0.00 0.00 79 1008.0
20260506113049 17 190 3.2 6.4 0.00 0.00 0.00 84 1006.5
20260506112557 17 182 0.0 0.0 0.00 0.00 0.00 79 1007.9
20260506112546 17 182 6.4 11.3 0.00 0.00 0.00 84 1006.7
20260506112343 17 185 0.0 0.0 0.00 0.00 0.00 79 1008.0
20260506112043 17 220 4.8 12.9 0.00 0.00 0.00 84 1006.4
20260506111554 17 168 0.0 0.0 0.00 0.00 0.00 79 1007.9
20260506111541 17 188 4.8 8.0 0.00 0.00 0.00 85 1006.5
20260506111053 17 155 0.0 0.0 0.00 0.00 0.00 79 1007.9
20260506111038 17 187 4.8 9.7 0.00 0.00 0.00 85 1006.5
20260506110554 17 163 0.0 0.0 0.00 0.00 0.00 79 1007.9
20260506110536 17 180 6.4 8.0 0.00 0.00 0.00 84 1006.7
20260506110107 16 137 0.0 0.0 0.00 0.00 0.00 79 1007.8
20260506110033 17 157 6.4 9.7 0.00 0.00 0.00 85 1006.4
20260506105552 16 168 0.0 0.0 0.00 0.00 0.00 80 1007.8
20260506105529 16 159 8.0 9.7 0.00 0.00 0.00 85 1006.7
20260506105051 16 161 0.0 0.0 0.00 0.00 0.00 79 1007.9
20260506105026 17 182 4.8 8.0 0.00 0.00 0.00 85 1006.4
20260506104538 16 159 0.0 0.0 0.00 0.00 0.00 79 1007.8
20260506104524 17 163 3.2 11.3 0.00 0.00 0.00 85 1006.1
20260506104023 17 145 0.0 0.0 0.00 0.00 0.00 79 1007.8
20260506103520 16 130 0.0 0.0 0.00 0.00 0.00 79 1007.7
20260506103309 16 149 0.0 0.0 0.00 0.00 0.00 79 1007.8
20260506103015 17 161 6.4 8.0 0.00 0.00 0.00 85 1006.5
20260506102521 17 184 0.0 0.0 0.00 0.00 0.00 79 1007.8
20260506102514 16 68 3.2 11.3 0.00 0.00 0.00 85 1006.1
20260506102019 17 169 0.0 0.0 0.00 0.00 0.00 79 1007.7
20260506102011 16 148 4.8 6.4 0.00 0.00 0.00 85 1006.5
20260506101521 17 84 0.0 0.0 0.00 0.00 0.00 79 1007.7
20260506101507 17 187 4.8 6.4 0.00 0.00 0.00 85 1006.4
20260506101017 17 148 0.0 0.0 0.00 0.00 0.00 79 1007.7
20260506101005 17 176 6.4 6.4 0.00 0.00 0.00 85 1006.3
20260506100517 17 157 0.0 0.0 0.00 0.00 0.00 79 1007.7
20260506100503 17 172 3.2 8.0 0.00 0.00 0.00 84 1006.3
20260506100008 17 255 0.0 0.0 0.00 0.00 0.00 79 1007.7
20260506100001 17 196 3.2 8.0 0.00 0.00 0.00 84 1006.2
20260506095506 17 171 1.6 8.0 0.00 0.00 0.00 78 1007.7
20260506095459 17 176 6.4 6.4 0.00 0.00 0.00 84 1006.4
20260506095008 17 123 3.2 8.0 0.00 0.00 0.00 78 1007.6
20260506094955 17 137 6.4 8.0 0.00 0.00 0.00 84 1006.1
20260506094506 17 174 3.2 8.0 0.00 0.00 0.00 78 1007.7
20260506094453 17 209 0.0 8.0 0.00 0.00 0.00 84 1006.3
20260506094008 17 143 4.8 12.9 0.00 0.00 0.00 78 1007.7
20260506093950 17 140 4.8 8.0 0.00 0.00 0.00 84 1006.3
20260506093504 17 150 4.8 12.9 0.00 0.00 0.00 77 1007.7
20260506093449 17 186 6.4 9.7 0.00 0.00 0.00 83 1006.3
20260506093005 17 154 4.8 12.9 0.00 0.00 0.00 77 1007.8
20260506092946 17 174 1.6 8.0 0.00 0.00 0.00 83 1006.4
20260506092505 17 130 6.4 12.9 0.00 0.00 0.00 76 1007.8
20260506092444 17 153 9.7 9.7 0.00 0.00 0.00 82 1006.3
20260506092247 17 129 4.8 12.9 0.00 0.00 0.00 76 1007.8
20260506091940 17 132 6.4 9.7 0.00 0.00 0.00 82 1006.5
20260506091454 17 155 4.8 12.9 0.00 0.00 0.00 76 1007.9
20260506091438 17 152 8.0 9.7 0.00 0.00 0.00 82 1006.5
20260506091235 17 163 4.8 12.9 0.00 0.00 0.00 75 1007.9
20260506090936 17 171 4.8 8.0 0.00 0.00 0.00 81 1006.5
20260506090452 17 136 3.2 11.3 0.00 0.00 0.00 75 1007.9
20260506090433 17 180 4.8 4.8 0.00 0.00 0.00 81 1006.8
20260506090241 17 180 3.2 11.3 0.00 0.00 0.00 75 1007.8
20260506085929 17 213 3.2 8.0 0.00 0.00 0.00 81 1006.5
20260506085453 18 158 3.2 8.0 0.00 0.00 0.00 75 1007.9
20260506085426 17 180 3.2 4.8 0.00 0.00 0.00 81 1006.8
20260506084953 18 157 4.8 11.3 0.00 0.00 0.00 74 1007.9
20260506084922 18 172 4.8 8.0 0.00 0.00 0.00 80 1006.5
20260506084454 18 156 4.8 11.3 0.00 0.00 0.00 74 1007.8
20260506084420 18 170 3.2 8.0 0.00 0.00 0.00 80 1006.8
20260506083954 18 158 3.2 11.3 0.00 0.00 0.00 74 1007.9
20260506083915 18 186 4.8 8.0 0.00 0.00 0.00 79 1006.5
20260506083454 18 169 4.8 9.7 0.00 0.00 0.00 74 1007.9
20260506083413 18 180 8.0 8.0 0.00 0.00 0.00 79 1006.8
20260506082951 18 167 4.8 9.7 0.00 0.00 0.00 74 1007.9
20260506082911 18 166 3.2 4.8 0.00 0.00 0.00 79 1006.8
20260506082451 18 207 4.8 9.7 0.00 0.00 0.00 73 1007.9
20260506082408 18 209 1.6 9.7 0.00 0.00 0.00 78 1006.4
20260506081951 18 74 4.8 11.3 0.00 0.00 0.00 73 1007.9
20260506081903 18 199 3.2 8.0 0.00 0.00 0.00 78 1006.7
20260506081738 18 132 4.8 11.3 0.00 0.00 0.00 73 1007.9
20260506081402 18 126 4.8 9.7 0.00 0.00 0.00 78 1006.5
20260506080951 18 162 4.8 8.0 0.00 0.00 0.00 72 1008.0
20260506080858 18 180 3.2 4.8 0.00 0.00 0.00 78 1006.7
20260506080450 18 153 3.2 9.7 0.00 0.00 0.00 72 1007.9
20260506080355 18 143 6.4 9.7 0.00 0.00 0.00 77 1006.8
20260506073452 18 180 4.8 14.5 0.00 0.00 0.00 70 1008.0
20260506073339 18 208 6.4 8.0 0.00 0.00 0.00 75 1006.5
20260506072939 18 143 4.8 9.7 0.00 0.00 0.00 70 1008.1
20260506072836 18 114 4.8 6.4 0.00 0.00 0.00 75 1007.0
20260506072439 18 146 4.8 9.7 0.00 0.00 0.00 70 1008.1
20260506072334 18 237 3.2 6.4 0.00 0.00 0.00 75 1007.1
20260506071939 18 164 3.2 9.7 0.00 0.00 0.00 71 1008.2
20260506071831 18 180 3.2 8.0 0.00 0.00 0.00 75 1007.0
20260506071438 18 146 3.2 9.7 0.00 0.00 0.00 71 1008.3
20260506071329 18 133 4.8 8.0 0.00 0.00 0.00 75 1007.0
20260506070938 18 140 3.2 8.0 0.00 0.00 0.00 70 1008.3
20260506070826 18 209 1.6 6.4 0.00 0.00 0.00 75 1007.0
20260506070722 18 167 3.2 8.0 0.00 0.00 0.00 70 1008.3
20260506070323 18 180 1.6 6.4 0.00 0.00 0.00 74 1007.3
20260506062432 18 113 1.6 6.4 0.00 0.00 0.00 68 1008.7
20260506062300 18 188 0.0 6.4 0.00 0.00 0.00 72 1007.4
20260506061928 18 157 1.6 9.7 0.00 0.00 0.00 67 1008.8
20260506061756 18 151 3.2 4.8 0.00 0.00 0.00 72 1007.6
20260506061427 18 126 1.6 9.7 0.00 0.00 0.00 67 1008.8
20260506061253 18 129 4.8 8.0 0.00 0.00 0.00 72 1007.8
20260506060919 18 155 3.2 6.4 0.00 0.00 0.00 67 1008.8
20260506060751 18 135 4.8 4.8 0.00 0.00 0.00 71 1007.4
20260506060419 18 159 3.2 6.4 0.00 0.00 0.00 67 1008.9
20260506060249 18 165 0.0 8.0 0.00 0.00 0.00 71 1007.8
20260506051355 19 126 3.2 9.7 0.00 0.00 0.00 64 1009.1
20260506051220 18 157 4.8 6.4 0.00 0.00 0.00 68 1007.9
20260506050856 18 143 3.2 8.0 0.00 0.00 0.00 64 1009.1
20260506050719 19 160 4.8 4.8 0.00 0.00 0.00 68 1007.8
20260506050434 19 142 3.2 6.4 0.00 0.00 0.00 63 1009.2
20260506050421 19 144 3.2 4.8 0.00 0.00 0.00 64 1009.2
20260506050215 19 151 4.8 6.4 0.00 0.00 0.00 68 1008.0
20260506045124 19 152 3.2 9.7 0.00 0.00 0.00 62 1009.2
20260506044706 19 166 0.0 6.4 0.00 0.00 0.00 66 1008.1
20260506044341 19 128 3.2 6.4 0.00 0.00 0.00 62 1009.2
20260506044203 19 157 4.8 8.0 0.00 0.00 0.00 66 1008.0
20260506043839 19 146 3.2 8.0 0.00 0.00 0.00 62 1009.2
20260506043701 19 178 6.4 6.4 0.00 0.00 0.00 66 1008.0
20260506043338 19 151 3.2 8.0 0.00 0.00 0.00 62 1009.2
20260506043158 19 155 4.8 6.4 0.00 0.00 0.00 66 1008.3
20260506042839 19 146 3.2 8.0 0.00 0.00 0.00 62 1009.2
20260506042657 19 176 3.2 4.8 0.00 0.00 0.00 66 1007.9
20260506042629 19 147 3.2 8.0 0.00 0.00 0.00 62 1009.3
20260506042155 19 169 3.2 4.8 0.00 0.00 0.00 65 1007.9
20260506042123 19 148 4.8 9.7 0.00 0.00 0.00 61 1009.3
20260506041653 19 178 6.4 6.4 0.00 0.00 0.00 65 1008.2
20260506041335 19 160 4.8 12.9 0.00 0.00 0.00 61 1009.3
20260506041150 20 180 4.8 6.4 0.00 0.00 0.00 65 1008.3
20260506041121 19 166 4.8 9.7 0.00 0.00 0.00 61 1009.2
20260506040647 19 161 4.8 4.8 0.00 0.00 0.00 65 1007.9
20260506040416 19 167 3.2 8.0 0.00 0.00 0.00 61 1009.2
20260506040401 19 171 4.8 9.7 0.00 0.00 0.00 61 1009.2
20260506040144 19 170 4.8 4.8 0.00 0.00 0.00 65 1008.3
20260506035641 19 163 4.8 8.0 0.00 0.00 0.00 65 1007.9
20260506035328 19 146 3.2 8.0 0.00 0.00 0.00 61 1009.2
20260506035137 19 168 3.2 4.8 0.00 0.00 0.00 64 1008.2
20260506034912 19 166 3.2 8.0 0.00 0.00 0.00 61 1009.2
20260506034859 19 157 3.2 8.0 0.00 0.00 0.00 61 1009.2
20260506034635 19 146 3.2 4.8 0.00 0.00 0.00 65 1008.0
20260506034132 19 202 3.2 6.4 0.00 0.00 0.00 65 1008.1
20260506034111 19 149 3.2 8.0 0.00 0.00 0.00 61 1009.1
20260506033629 19 191 3.2 4.8 0.00 0.00 0.00 65 1007.7
20260506033324 19 148 3.2 6.4 0.00 0.00 0.00 61 1009.2
20260506033126 19 169 3.2 4.8 0.00 0.00 0.00 65 1008.0
20260506032822 19 160 3.2 8.0 0.00 0.00 0.00 61 1009.2
20260506032623 19 157 0.0 4.8 0.00 0.00 0.00 65 1008.0
20260506032322 19 161 3.2 8.0 0.00 0.00 0.00 61 1009.1
20260506032120 19 172 3.2 6.4 0.00 0.00 0.00 64 1008.1
20260506031823 19 155 3.2 6.4 0.00 0.00 0.00 60 1009.1
20260506031617 19 180 4.8 4.8 0.00 0.00 0.00 65 1008.0
20260506031323 19 129 3.2 6.4 0.00 0.00 0.00 60 1009.1
20260506031114 19 133 4.8 6.4 0.00 0.00 0.00 64 1008.0
20260506030824 19 141 3.2 8.0 0.00 0.00 0.00 60 1009.1
20260506030612 20 180 3.2 8.0 0.00 0.00 0.00 64 1008.0
20260506030314 19 140 3.2 8.0 0.00 0.00 0.00 59 1009.1
20260506030109 19 140 4.8 8.0 0.00 0.00 0.00 63 1008.0
20260506025809 20 156 3.2 6.4 0.00 0.00 0.00 59 1009.1
20260506025606 20 176 3.2 4.8 0.00 0.00 0.00 63 1008.0
20260506025308 20 126 3.2 8.0 0.00 0.00 0.00 59 1009.1
20260506025102 20 147 4.8 4.8 0.00 0.00 0.00 62 1008.0
20260506024810 20 138 3.2 9.7 0.00 0.00 0.00 58 1009.1
20260506024600 20 135 4.8 4.8 0.00 0.00 0.00 62 1008.0
20260506024308 20 145 3.2 9.7 0.00 0.00 0.00 58 1009.1
20260506024056 20 170 6.4 6.4 0.00 0.00 0.00 62 1008.0
20260506023809 20 134 3.2 8.0 0.00 0.00 0.00 57 1009.1
20260506023551 20 143 4.8 6.4 0.00 0.00 0.00 61 1007.9
20260506023308 20 132 3.2 8.0 0.00 0.00 0.00 57 1009.1
20260506023049 20 196 3.2 6.4 0.00 0.00 0.00 61 1007.8
20260506022819 20 155 3.2 6.4 0.00 0.00 0.00 57 1009.2
20260506022547 20 138 4.8 6.4 0.00 0.00 0.00 61 1008.2
20260506022305 20 150 3.2 8.0 0.00 0.00 0.00 57 1009.2
20260506022044 20 151 4.8 4.8 0.00 0.00 0.00 61 1008.2
20260506022036 20 136 3.2 8.0 0.00 0.00 0.00 57 1009.2
20260506021542 20 123 3.2 4.8 0.00 0.00 0.00 61 1008.2
20260506021249 20 144 3.2 6.4 0.00 0.00 0.00 57 1009.2
20260506021039 20 166 1.6 3.2 0.00 0.00 0.00 60 1008.3
20260506020746 20 123 3.2 8.0 0.00 0.00 0.00 57 1009.2
20260506020536 20 169 3.2 4.8 0.00 0.00 0.00 60 1008.0
20260506020245 20 133 3.2 8.0 0.00 0.00 0.00 56 1009.1
20260506020033 20 164 3.2 4.8 0.00 0.00 0.00 60 1007.9
20260506015747 20 148 1.6 8.0 0.00 0.00 0.00 56 1009.1
20260506015531 20 166 6.4 6.4 0.00 0.00 0.00 60 1008.3
20260506015257 20 148 1.6 8.0 0.00 0.00 0.00 55 1009.1
20260506015027 20 162 1.6 4.8 0.00 0.00 0.00 59 1008.0
20260506014745 20 148 3.2 8.0 0.00 0.00 0.00 55 1009.0
20260506014525 20 168 1.6 6.4 0.00 0.00 0.00 59 1007.9
20260506014245 20 148 3.2 9.7 0.00 0.00 0.00 55 1008.9
20260506014021 20 162 4.8 4.8 0.00 0.00 0.00 58 1007.8
20260506013738 20 133 3.2 9.7 0.00 0.00 0.00 56 1008.8
20260506013529 20 136 1.6 4.8 0.00 0.00 0.00 54 1008.9
20260506013519 20 107 3.2 4.8 0.00 0.00 0.00 58 1007.8
20260506013015 20 194 1.6 6.4 0.00 0.00 0.00 58 1008.0
20260506012739 21 134 1.6 4.8 0.00 0.00 0.00 54 1008.9
20260506012511 20 105 0.0 4.8 0.00 0.00 0.00 58 1007.8
20260506012235 21 134 1.6 4.8 0.00 0.00 0.00 53 1008.8
20260506012009 21 148 4.8 4.8 0.00 0.00 0.00 56 1007.7
20260506011733 21 134 1.6 6.4 0.00 0.00 0.00 52 1008.7
20260506011506 21 168 3.2 3.2 0.00 0.00 0.00 56 1007.6
20260506011233 21 134 3.2 8.0 0.00 0.00 0.00 53 1008.6
20260506011021 21 129 3.2 8.0 0.00 0.00 0.00 52 1008.6
20260506011002 21 177 3.2 6.4 0.00 0.00 0.00 55 1007.5
20260506010502 21 129 3.2 6.4 0.00 0.00 0.00 56 1007.4
20260506010233 21 117 3.2 4.8 0.00 0.00 0.00 52 1008.5
20260506005957 21 144 0.0 6.4 0.00 0.00 0.00 56 1007.4
20260506005733 21 117 3.2 6.4 0.00 0.00 0.00 51 1008.5
20260506005455 21 173 0.0 4.8 0.00 0.00 0.00 54 1007.7
20260506005233 21 117 1.6 6.4 0.00 0.00 0.00 51 1008.5
20260506004950 21 180 1.6 4.8 0.00 0.00 0.00 54 1007.3
20260506004732 21 151 1.6 4.8 0.00 0.00 0.00 50 1008.4
20260506004448 21 142 4.8 4.8 0.00 0.00 0.00 54 1007.5
20260506004233 21 151 3.2 8.0 0.00 0.00 0.00 50 1008.3
20260506003944 21 192 1.6 4.8 0.00 0.00 0.00 53 1007.5
20260506003731 21 148 3.2 8.0 0.00 0.00 0.00 49 1008.3
20260506003552 22 159 1.6 6.4 0.00 0.00 0.00 48 1008.3
20260506003548 22 157 1.6 8.0 0.00 0.00 0.00 48 1008.3
20260506003441 22 123 3.2 6.4 0.00 0.00 0.00 53 1007.2
20260506002937 22 141 4.8 4.8 0.00 0.00 0.00 52 1007.2
20260506002433 22 180 0.0 4.8 0.00 0.00 0.00 51 1006.9
20260506002221 22 170 3.2 8.0 0.00 0.00 0.00 48 1008.2
20260506002001 22 175 3.2 8.0 0.00 0.00 0.00 47 1008.2
20260506001929 22 168 1.6 4.8 0.00 0.00 0.00 51 1007.2
20260506001426 22 99 0.0 6.4 0.00 0.00 0.00 51 1007.2
20260506001221 22 159 3.2 8.0 0.00 0.00 0.00 47 1008.1
20260506001021 22 145 3.2 8.0 0.00 0.00 0.00 48 1008.2
20260506000923 22 209 1.6 4.8 0.00 0.00 0.00 50 1007.2
20260506000423 22 201 3.2 6.4 0.00 0.00 0.00 50 1007.1
20260506000219 22 131 3.2 6.4 0.00 0.00 0.00 47 1008.1
20260505235917 22 176 3.2 8.0 0.00 0.00 0.00 50 1007.0
20260505235720 22 165 3.2 6.4 0.00 0.00 0.00 47 1008.0
20260505235416 22 180 3.2 8.0 0.00 0.00 0.00 51 1006.9
20260505235213 22 134 3.2 8.0 0.00 0.00 0.00 47 1008.0
20260505234912 22 175 1.6 4.8 0.00 0.00 0.00 50 1007.0
20260505234712 23 140 3.2 8.0 0.00 0.00 0.00 47 1007.9
20260505234410 22 171 3.2 4.8 0.00 0.00 0.00 50 1006.8
20260505234213 23 161 3.2 9.7 0.00 0.00 0.00 46 1007.9
20260505233906 23 144 4.8 8.0 0.00 0.00 0.00 49 1006.8
20260505233710 23 176 4.8 9.7 0.00 0.00 0.00 45 1007.8
20260505233404 23 160 6.4 8.0 0.00 0.00 0.00 48 1006.8
20260505233211 23 161 3.2 8.0 0.00 0.00 0.00 45 1007.7
20260505232955 23 148 3.2 8.0 0.00 0.00 0.00 46 1007.8
20260505232901 23 173 4.8 4.8 0.00 0.00 0.00 48 1006.7
20260505232359 23 147 4.8 4.8 0.00 0.00 0.00 48 1006.9
20260505232158 23 147 3.2 8.0 0.00 0.00 0.00 45 1007.8
20260505231855 23 162 3.2 4.8 0.00 0.00 0.00 48 1006.8
20260505231658 23 138 3.2 9.7 0.00 0.00 0.00 45 1007.9
20260505231353 23 156 3.2 4.8 0.00 0.00 0.00 48 1006.9
20260505231159 23 165 3.2 9.7 0.00 0.00 0.00 44 1007.9
20260505230851 23 180 0.0 6.4 0.00 0.00 0.00 47 1006.8
20260505230710 23 108 4.8 11.3 0.00 0.00 0.00 44 1007.8
20260505230348 23 180 0.0 6.4 0.00 0.00 0.00 46 1006.8
20260505230158 23 150 4.8 14.5 0.00 0.00 0.00 43 1007.9
20260505225845 24 154 8.0 9.7 0.00 0.00 0.00 46 1006.9
20260505225700 24 138 6.4 14.5 0.00 0.00 0.00 43 1007.8
20260505225342 24 198 1.6 6.4 0.00 0.00 0.00 46 1006.7
20260505225159 24 143 6.4 14.5 0.00 0.00 0.00 43 1007.8
20260505224937 24 156 6.4 14.5 0.00 0.00 0.00 43 1007.8
20260505224837 24 178 4.8 9.7 0.00 0.00 0.00 45 1006.8
20260505224335 24 147 6.4 8.0 0.00 0.00 0.00 45 1006.9
20260505224157 24 168 6.4 11.3 0.00 0.00 0.00 43 1007.8
20260505223832 24 175 4.8 6.4 0.00 0.00 0.00 46 1006.5
20260505223658 24 143 6.4 12.9 0.00 0.00 0.00 42 1007.8
20260505223329 25 195 6.4 8.0 0.00 0.00 0.00 45 1006.9
20260505223156 24 160 6.4 14.5 0.00 0.00 0.00 42 1007.8
20260505222824 25 156 9.7 11.3 0.00 0.00 0.00 44 1006.5
20260505222644 25 148 3.2 14.5 0.00 0.00 0.00 41 1007.9
20260505222321 25 187 8.0 14.5 0.00 0.00 0.00 45 1006.9
20260505222143 25 137 0.0 3.2 0.00 0.00 0.00 43 1007.9
20260505221818 25 122 6.4 12.9 0.00 0.00 0.00 45 1006.8
20260505221644 25 108 0.0 0.0 0.00 0.00 0.00 43 1007.8
20260505221315 25 275 3.2 11.3 0.00 0.00 0.00 45 1006.8
20260505221145 25 157 0.0 0.0 0.00 0.00 0.00 42 1007.8
20260505220812 25 303 3.2 12.9 0.00 0.00 0.00 45 1007.0
20260505220645 25 144 1.6 12.9 0.00 0.00 0.00 43 1007.8
20260505220309 25 180 3.2 12.9 0.00 0.00 0.00 46 1006.8
20260505220145 25 139 4.8 14.5 0.00 0.00 0.00 43 1007.8
20260505215807 25 130 4.8 11.3 0.00 0.00 0.00 46 1006.9
20260505215630 25 137 6.4 16.1 0.00 0.00 0.00 44 1007.9
20260505215305 25 135 4.8 11.3 0.00 0.00 0.00 46 1006.8
20260505215129 25 137 6.4 16.1 0.00 0.00 0.00 42 1007.8
20260505214802 25 166 4.8 9.7 0.00 0.00 0.00 46 1006.8
20260505214627 25 147 6.4 11.3 0.00 0.00 0.00 41 1007.8
20260505214259 25 187 6.4 8.0 0.00 0.00 0.00 45 1006.9
20260505214128 25 150 6.4 14.5 0.00 0.00 0.00 42 1007.8
20260505213756 25 180 4.8 8.0 0.00 0.00 0.00 44 1006.7
20260505213626 25 178 8.0 16.1 0.00 0.00 0.00 41 1007.7
20260505213254 25 185 11.3 12.9 0.00 0.00 0.00 45 1006.5
20260505213127 25 148 8.0 16.1 0.00 0.00 0.00 42 1007.6
20260505212749 25 180 4.8 9.7 0.00 0.00 0.00 45 1006.5
20260505212627 25 155 8.0 16.1 0.00 0.00 0.00 42 1007.6
20260505212247 25 174 6.4 9.7 0.00 0.00 0.00 45 1007.0